• In United Kingdom
  • List of Countries
  • For 7 days
  • Water Temperature
  • Satellite Maps
  • Weather Map
  • Weather Widgets
  • user-avatar
    Login

    Hourly Weather Bujumbura

    Today, 14 November, Wednesday

    Time Temperature Precipitation Wind Pressure Humidity
    00:00 +25°C° 0.8 mm 1 mps 690 mmHg 90%
    01:00 +24°C° 0.8 mm 1 mps 690 mmHg 90%
    02:00 +24°C° 0 mm 1 mps 689 mmHg 90%
    03:00 +24°C° 0.2 mm 1 mps 689 mmHg 90%
    04:00 +24°C° 0.2 mm 1 mps 689 mmHg 89%
    05:00 +24°C° 0.2 mm 1 mps 689 mmHg 89%
    06:00 +25°C° 0.2 mm 1 mps 689 mmHg 85%
    07:00 +26°C° 0.2 mm 1 mps 690 mmHg 81%
    08:00 +27°C° 0 mm 1 mps 690 mmHg 75%
    09:00 +29°C° 0.1 mm 1 mps 690 mmHg 69%
    10:00 +31°C° 0.1 mm 1 mps 690 mmHg 63%
    11:00 +33°C° 0.1 mm 1 mps 690 mmHg 57%
    12:00 +33°C° 0.7 mm 1 mps 689 mmHg 58%
    13:00 +33°C° 0.7 mm 1 mps 689 mmHg 60%
    14:00 +33°C° 0.7 mm 1 mps 688 mmHg 61%
    15:00 +31°C° 1.7 mm 1 mps 688 mmHg 67%
    16:00 +30°C° 1.7 mm 1 mps 688 mmHg 72%
    17:00 +29°C° 1.7 mm 1 mps 688 mmHg 78%
    18:00 +28°C° 2.6 mm 1 mps 688 mmHg 82%
    19:00 +27°C° 2.6 mm 1 mps 689 mmHg 86%
    20:00 +26°C° 2.6 mm 1 mps 689 mmHg 90%
    21:00 +25°C° 2.2 mm 1 mps 690 mmHg 90%
    22:00 +25°C° 2.2 mm 1 mps 690 mmHg 90%
    23:00 +25°C° 2.2 mm 1 mps 691 mmHg 91%

    Tomorrow, 15 November, Thursday

    Time Temperature Precipitation Wind Pressure Humidity
    00:00 +25°C° 2.4 mm 1 mps 690 mmHg 91%
    01:00 +25°C° 2.4 mm 1 mps 690 mmHg 92%
    02:00 +24°C° 2.4 mm 1 mps 690 mmHg 92%
    03:00 +24°C° 1.1 mm 1 mps 690 mmHg 92%
    04:00 +24°C° 1.1 mm 1 mps 690 mmHg 92%
    05:00 +24°C° 1.1 mm 1 mps 690 mmHg 92%
    06:00 +24°C° 0.9 mm 1 mps 690 mmHg 90%
    07:00 +25°C° 0.9 mm 1 mps 691 mmHg 88%
    08:00 +25°C° 0.9 mm 1 mps 691 mmHg 86%
    09:00 +26°C° 2 mm 1 mps 691 mmHg 86%
    10:00 +26°C° 2 mm 1 mps 691 mmHg 85%
    11:00 +26°C° 2 mm 1 mps 691 mmHg 85%
    12:00 +26°C° 1.9 mm 1 mps 691 mmHg 84%
    13:00 +26°C° 1.9 mm 1 mps 690 mmHg 84%
    14:00 +26°C° 1.9 mm 1 mps 690 mmHg 83%
    15:00 +26°C° 0.7 mm 1 mps 690 mmHg 83%
    16:00 +26°C° 0.7 mm 1 mps 689 mmHg 83%
    17:00 +26°C° 0.7 mm 1 mps 689 mmHg 83%
    18:00 +25°C° 0.5 mm 1 mps 690 mmHg 85%
    19:00 +25°C° 0.5 mm 1 mps 691 mmHg 87%
    20:00 +24°C° 0.5 mm 1 mps 692 mmHg 89%
    21:00 +24°C° 0.9 mm 1 mps 692 mmHg 90%
    22:00 +24°C° 0.9 mm 1 mps 692 mmHg 90%
    23:00 +24°C° 0.9 mm 1 mps 692 mmHg 91%

    Day after tomorrow, 16 November, Friday

    Time Temperature Precipitation Wind Pressure Humidity
    00:00 +23°C° 0.2 mm 1 mps 692 mmHg 90%
    01:00 +23°C° 0.2 mm 1 mps 691 mmHg 89%
    02:00 +23°C° 0.2 mm 1 mps 691 mmHg 89%
    03:00 +23°C° 0 mm 1 mps 691 mmHg 89%
    04:00 +21°C° 0 mm 0 mps 691 mmHg 89%
    05:00 +21°C° 0 mm 0 mps 691 mmHg 89%
    06:00 +22°C° 0 mm 0 mps 691 mmHg 84%
    07:00 +23°C° 0 mm 0 mps 692 mmHg 80%
    08:00 +26°C° 0 mm 1 mps 693 mmHg 76%
    09:00 +28°C° 0 mm 1 mps 693 mmHg 69%
    10:00 +30°C° 0 mm 1 mps 693 mmHg 63%
    11:00 +32°C° 0 mm 1 mps 693 mmHg 57%
    12:00 +32°C° 0.1 mm 2 mps 692 mmHg 58%
    13:00 +32°C° 0.1 mm 2 mps 691 mmHg 59%
    14:00 +32°C° 0.1 mm 2 mps 690 mmHg 59%
    15:00 +31°C° 0.6 mm 2 mps 690 mmHg 65%
    16:00 +30°C° 0.6 mm 2 mps 690 mmHg 70%
    17:00 +29°C° 0.6 mm 2 mps 690 mmHg 75%
    18:00 +27°C° 0.8 mm 1 mps 690 mmHg 79%
    19:00 +26°C° 0.8 mm 1 mps 691 mmHg 84%
    20:00 +23°C° 0.8 mm 0 mps 692 mmHg 89%
    21:00 +22°C° 0.6 mm 0 mps 692 mmHg 89%
    22:00 +24°C° 0.6 mm 1 mps 692 mmHg 89%
    23:00 +24°C° 0.6 mm 1 mps 692 mmHg 89%

    17 November, Saturday

    Time Temperature Precipitation Wind Pressure Humidity
    00:00 +24°C° 0.1 mm 1 mps 692 mmHg 89%
    01:00 +24°C° 0.1 mm 1 mps 692 mmHg 89%
    02:00 +23°C° 0.1 mm 1 mps 691 mmHg 89%
    03:00 +23°C° 0 mm 1 mps 691 mmHg 89%
    04:00 +23°C° 0 mm 1 mps 691 mmHg 89%
    05:00 +22°C° 0 mm 1 mps 691 mmHg 88%
    06:00 +24°C° 0 mm 1 mps 692 mmHg 82%
    07:00 +26°C° 0 mm 1 mps 693 mmHg 75%
    08:00 +27°C° 0 mm 1 mps 693 mmHg 68%
    09:00 +29°C° 0 mm 1 mps 693 mmHg 61%
    10:00 +31°C° 0 mm 1 mps 693 mmHg 54%
    11:00 +34°C° 0 mm 2 mps 693 mmHg 47%
    12:00 +34°C° 0 mm 2 mps 692 mmHg 48%
    13:00 +34°C° 0 mm 2 mps 691 mmHg 49%
    14:00 +34°C° 0 mm 2 mps 690 mmHg 51%
    15:00 +32°C° 0.5 mm 2 mps 690 mmHg 57%
    16:00 +30°C° 0.5 mm 1 mps 690 mmHg 63%
    17:00 +29°C° 0.5 mm 1 mps 690 mmHg 69%
    18:00 +28°C° 0.7 mm 1 mps 690 mmHg 74%
    19:00 +26°C° 0.7 mm 1 mps 691 mmHg 79%
    20:00 +24°C° 0.7 mm 1 mps 692 mmHg 84%
    21:00 +24°C° 0.3 mm 1 mps 692 mmHg 85%
    22:00 +24°C° 0.3 mm 1 mps 692 mmHg 85%
    23:00 +24°C° 0.3 mm 1 mps 692 mmHg 86%

    18 November, Sunday

    Time Temperature Precipitation Wind Pressure Humidity
    00:00 +23°C° 0 mm 1 mps 692 mmHg 86%
    01:00 +23°C° 0 mm 1 mps 691 mmHg 86%
    02:00 +23°C° 0 mm 1 mps 690 mmHg 86%
    03:00 +23°C° 0 mm 1 mps 690 mmHg 85%
    04:00 +23°C° 0 mm 1 mps 691 mmHg 85%
    05:00 +22°C° 0 mm 1 mps 691 mmHg 84%
    06:00 +24°C° 0 mm 1 mps 692 mmHg 78%
    07:00 +26°C° 0 mm 1 mps 692 mmHg 72%
    08:00 +28°C° 0 mm 1 mps 693 mmHg 66%
    09:00 +29°C° 0.1 mm 1 mps 693 mmHg 62%
    10:00 +31°C° 0.1 mm 1 mps 693 mmHg 58%
    11:00 +32°C° 0.1 mm 1 mps 693 mmHg 53%
    12:00 +32°C° 0.7 mm 2 mps 692 mmHg 56%
    13:00 +32°C° 0.7 mm 2 mps 691 mmHg 59%
    14:00 +32°C° 0.7 mm 2 mps 689 mmHg 61%
    15:00 +31°C° 1.3 mm 2 mps 689 mmHg 65%
    16:00 +30°C° 1.3 mm 1 mps 689 mmHg 69%
    17:00 +29°C° 1.3 mm 1 mps 690 mmHg 73%
    18:00 +28°C° 1.7 mm 1 mps 690 mmHg 77%
    19:00 +26°C° 1.7 mm 1 mps 691 mmHg 81%
    20:00 +23°C° 1.7 mm 0 mps 692 mmHg 86%
    21:00 +23°C° 1.1 mm 0 mps 692 mmHg 87%
    22:00 +24°C° 1.1 mm 1 mps 692 mmHg 87%
    23:00 +24°C° 1.1 mm 1 mps 692 mmHg 88%

    19 November, Monday

    Time Temperature Precipitation Wind Pressure Humidity
    00:00 +24°C° 0.4 mm 1 mps 691 mmHg 89%
    01:00 +24°C° 0.4 mm 1 mps 691 mmHg 89%
    02:00 +23°C° 0.4 mm 1 mps 690 mmHg 89%
    03:00 +23°C° 0.1 mm 1 mps 690 mmHg 89%
    04:00 +23°C° 0.1 mm 1 mps 691 mmHg 88%
    05:00 +23°C° 0.1 mm 1 mps 691 mmHg 88%
    06:00 +25°C° 0 mm 1 mps 691 mmHg 83%
    07:00 +26°C° 0 mm 1 mps 692 mmHg 78%
    08:00 +28°C° 0 mm 1 mps 693 mmHg 73%
    09:00 +29°C° 0 mm 1 mps 693 mmHg 66%
    10:00 +31°C° 0 mm 1 mps 692 mmHg 58%
    11:00 +33°C° 0 mm 1 mps 692 mmHg 51%
    12:00 +33°C° 0.3 mm 1 mps 691 mmHg 52%
    13:00 +34°C° 0.3 mm 2 mps 690 mmHg 53%
    14:00 +34°C° 0.3 mm 2 mps 689 mmHg 55%
    15:00 +31°C° 0.9 mm 2 mps 689 mmHg 60%
    16:00 +30°C° 0.9 mm 2 mps 689 mmHg 66%
    17:00 +29°C° 0.9 mm 2 mps 689 mmHg 71%
    18:00 +28°C° 1.6 mm 1 mps 690 mmHg 77%
    19:00 +26°C° 1.6 mm 1 mps 691 mmHg 82%
    20:00 +23°C° 1.6 mm 0 mps 691 mmHg 88%
    21:00 +23°C° 1.1 mm 0 mps 691 mmHg 88%
    22:00 +22°C° 1.1 mm 0 mps 691 mmHg 89%
    23:00 +22°C° 1.1 mm 0 mps 691 mmHg 90%
    Show more